| time (UTC) | temp F | wind direction | speed MPH | gust MPH | rain 1hr in | rain 24hr in | rain mn in | humidity % | barometer mb |
| 20260504021503 | 51 | 220 | 0.0 | 0.0 | 0.00 | 0.00 | 0.00 | 45 | 1021.6 |
| 20260504021000 | 51 | 207 | 0.0 | 0.0 | 0.00 | 0.00 | 0.00 | 41 | 1021.8 |
| 20260504020456 | 52 | 214 | 0.0 | 0.0 | 0.00 | 0.00 | 0.00 | 42 | 1021.4 |
| 20260504015953 | 53 | 220 | 0.0 | 0.0 | 0.00 | 0.00 | 0.00 | 40 | 1021.6 |
| 20260504015449 | 53 | 204 | 0.0 | 0.0 | 0.00 | 0.00 | 0.00 | 39 | 1021.7 |
| 20260504014945 | 54 | 204 | 0.0 | 0.0 | 0.00 | 0.00 | 0.00 | 39 | 1021.4 |
| 20260504014441 | 54 | 209 | 0.0 | 0.0 | 0.00 | 0.00 | 0.00 | 39 | 1021.4 |
| 20260504013938 | 55 | 214 | 0.0 | 0.0 | 0.00 | 0.00 | 0.00 | 38 | 1021.3 |
| 20260504013437 | 55 | 208 | 0.0 | 0.0 | 0.00 | 0.00 | 0.00 | 37 | 1021.4 |
| 20260504012932 | 56 | 252 | 1.0 | 1.0 | 0.00 | 0.00 | 0.00 | 37 | 1021.1 |
| 20260504012431 | 56 | 281 | 3.0 | 6.0 | 0.00 | 0.00 | 0.00 | 36 | 1021.4 |
| 20260504011928 | 56 | 166 | 3.0 | 3.0 | 0.00 | 0.00 | 0.00 | 36 | 1021.1 |
| 20260504011425 | 57 | 218 | 0.0 | 0.0 | 0.00 | 0.00 | 0.00 | 35 | 1020.9 |
| 20260504010920 | 57 | 347 | 1.0 | 2.0 | 0.00 | 0.00 | 0.00 | 35 | 1020.9 |
| 20260504010417 | 57 | 224 | 1.0 | 2.0 | 0.00 | 0.00 | 0.00 | 35 | 1021.2 |
| 20260504005913 | 57 | 342 | 5.0 | 6.0 | 0.00 | 0.00 | 0.00 | 34 | 1020.9 |
| 20260504005410 | 57 | 307 | 2.0 | 2.0 | 0.00 | 0.00 | 0.00 | 34 | 1021.2 |
| 20260504004908 | 58 | 29 | 4.0 | 6.0 | 0.00 | 0.00 | 0.00 | 33 | 1021.3 |
| 20260504004405 | 58 | 274 | 2.0 | 2.0 | 0.00 | 0.00 | 0.00 | 33 | 1021.1 |
| 20260504003902 | 58 | 16 | 3.0 | 3.0 | 0.00 | 0.00 | 0.00 | 33 | 1021.2 |
| 20260504003358 | 59 | 356 | 2.0 | 3.0 | 0.00 | 0.00 | 0.00 | 32 | 1021.1 |
| 20260504002855 | 60 | 352 | 3.0 | 3.0 | 0.00 | 0.00 | 0.00 | 30 | 1021.1 |
| 20260504002352 | 60 | 231 | 0.0 | 0.0 | 0.00 | 0.00 | 0.00 | 30 | 1021.2 |
| 20260504001849 | 60 | 216 | 0.0 | 1.0 | 0.00 | 0.00 | 0.00 | 30 | 1021.1 |
| 20260504001347 | 59 | 237 | 1.0 | 2.0 | 0.00 | 0.00 | 0.00 | 31 | 1020.8 |
| 20260504000843 | 58 | 239 | 0.0 | 0.0 | 0.00 | 0.00 | 0.00 | 32 | 1021.1 |
| 20260504000341 | 59 | 117 | 11.0 | 14.0 | 0.00 | 0.00 | 0.00 | 31 | 1020.9 |
| 20260503235838 | 59 | 234 | 1.0 | 2.0 | 0.00 | 0.00 | 0.00 | 30 | 1021.1 |
| 20260503235335 | 60 | 132 | 3.0 | 5.0 | 0.00 | 0.00 | 0.00 | 29 | 1021.2 |
| 20260503234833 | 60 | 244 | 2.0 | 3.0 | 0.00 | 0.00 | 0.00 | 29 | 1021.1 |
| 20260503234330 | 60 | 232 | 3.0 | 3.0 | 0.00 | 0.00 | 0.00 | 28 | 1020.8 |
| 20260503233828 | 60 | 246 | 4.0 | 5.0 | 0.00 | 0.00 | 0.00 | 24 | 1020.8 |
| 20260503233323 | 60 | 225 | 1.0 | 1.0 | 0.00 | 0.00 | 0.00 | 29 | 1020.9 |
| 20260503232820 | 60 | 58 | 5.0 | 8.0 | 0.00 | 0.00 | 0.00 | 26 | 1020.4 |
| 20260503232318 | 61 | 148 | 2.0 | 3.0 | 0.00 | 0.00 | 0.00 | 25 | 1020.4 |
| 20260503231816 | 60 | 196 | 1.0 | 2.0 | 0.00 | 0.00 | 0.00 | 26 | 1020.7 |
| 20260503231312 | 61 | 226 | 0.0 | 0.0 | 0.00 | 0.00 | 0.00 | 26 | 1020.8 |
| 20260503230808 | 61 | 201 | 1.0 | 2.0 | 0.00 | 0.00 | 0.00 | 28 | 1020.8 |
| 20260503230306 | 61 | 229 | 0.0 | 1.0 | 0.00 | 0.00 | 0.00 | 26 | 1020.7 |
| 20260503225803 | 60 | 248 | 2.0 | 2.0 | 0.00 | 0.00 | 0.00 | 27 | 1021.1 |
| 20260503225258 | 60 | 245 | 1.0 | 2.0 | 0.00 | 0.00 | 0.00 | 26 | 1020.7 |
| 20260503224755 | 60 | 238 | 3.0 | 3.0 | 0.00 | 0.00 | 0.00 | 28 | 1020.9 |
| 20260503224253 | 61 | 225 | 1.0 | 1.0 | 0.00 | 0.00 | 0.00 | 27 | 1020.8 |
| 20260503223750 | 60 | 226 | 2.0 | 2.0 | 0.00 | 0.00 | 0.00 | 28 | 1020.8 |
| 20260503223248 | 60 | 236 | 2.0 | 2.0 | 0.00 | 0.00 | 0.00 | 28 | 1021.1 |
| 20260503222743 | 60 | 217 | 1.0 | 1.0 | 0.00 | 0.00 | 0.00 | 27 | 1021.1 |
| 20260503222242 | 60 | 219 | 3.0 | 3.0 | 0.00 | 0.00 | 0.00 | 27 | 1020.9 |
| 20260503221740 | 60 | 38 | 4.0 | 6.0 | 0.00 | 0.00 | 0.00 | 26 | 1021.1 |
| 20260503221237 | 60 | 252 | 5.0 | 6.0 | 0.00 | 0.00 | 0.00 | 27 | 1021.4 |
| 20260503220734 | 61 | 304 | 6.0 | 7.0 | 0.00 | 0.00 | 0.00 | 27 | 1021.4 |
| 20260503220231 | 60 | 33 | 5.0 | 6.0 | 0.00 | 0.00 | 0.00 | 27 | 1021.4 |
| 20260503215727 | 60 | 233 | 2.0 | 2.0 | 0.00 | 0.00 | 0.00 | 27 | 1021.4 |
| 20260503215224 | 60 | 305 | 5.0 | 6.0 | 0.00 | 0.00 | 0.00 | 26 | 1021.7 |
| 20260503214722 | 60 | 242 | 6.0 | 7.0 | 0.00 | 0.00 | 0.00 | 26 | 1021.7 |
| 20260503214219 | 60 | 349 | 9.0 | 11.0 | 0.00 | 0.00 | 0.00 | 25 | 1022.0 |
| 20260503213717 | 60 | 264 | 7.0 | 8.0 | 0.00 | 0.00 | 0.00 | 25 | 1021.7 |
| 20260503213213 | 61 | 228 | 2.0 | 3.0 | 0.00 | 0.00 | 0.00 | 24 | 1021.7 |
| 20260503212711 | 61 | 233 | 1.0 | 1.0 | 0.00 | 0.00 | 0.00 | 25 | 1022.0 |
| 20260503212208 | 61 | 21 | 6.0 | 7.0 | 0.00 | 0.00 | 0.00 | 23 | 1021.8 |
| 20260503211706 | 61 | 316 | 4.0 | 5.0 | 0.00 | 0.00 | 0.00 | 24 | 1021.8 |
| 20260503211202 | 62 | 229 | 7.0 | 8.0 | 0.00 | 0.00 | 0.00 | 25 | 1022.0 |
| 20260503210658 | 62 | 233 | 6.0 | 8.0 | 0.00 | 0.00 | 0.00 | 24 | 1022.3 |
| 20260503210155 | 61 | 318 | 4.0 | 5.0 | 0.00 | 0.00 | 0.00 | 24 | 1022.5 |
| 20260503205650 | 61 | 331 | 3.0 | 3.0 | 0.00 | 0.00 | 0.00 | 24 | 1022.3 |
| 20260503205146 | 61 | 287 | 4.0 | 6.0 | 0.00 | 0.00 | 0.00 | 24 | 1022.3 |
| 20260503204643 | 61 | 229 | 3.0 | 3.0 | 0.00 | 0.00 | 0.00 | 24 | 1022.5 |
| 20260503204141 | 60 | 238 | 4.0 | 5.0 | 0.00 | 0.00 | 0.00 | 24 | 1022.3 |
| 20260503203638 | 61 | 359 | 5.0 | 8.0 | 0.00 | 0.00 | 0.00 | 23 | 1022.5 |
| 20260503203135 | 62 | 354 | 9.0 | 10.0 | 0.00 | 0.00 | 0.00 | 23 | 1022.5 |
| 20260503202632 | 62 | 270 | 4.0 | 5.0 | 0.00 | 0.00 | 0.00 | 22 | 1022.6 |
| 20260503202130 | 61 | 274 | 2.0 | 2.0 | 0.00 | 0.00 | 0.00 | 23 | 1022.7 |
| 20260503201628 | 61 | 227 | 5.0 | 6.0 | 0.00 | 0.00 | 0.00 | 24 | 1022.6 |
| 20260503201125 | 62 | 32 | 4.0 | 6.0 | 0.00 | 0.00 | 0.00 | 23 | 1022.8 |
| 20260503200622 | 62 | 220 | 8.0 | 10.0 | 0.00 | 0.00 | 0.00 | 23 | 1022.7 |
| 20260503200118 | 64 | 10 | 7.0 | 9.0 | 0.00 | 0.00 | 0.00 | 23 | 1022.8 |
| 20260503195615 | 64 | 235 | 4.0 | 5.0 | 0.00 | 0.00 | 0.00 | 23 | 1022.7 |
| 20260503195111 | 63 | 242 | 4.0 | 5.0 | 0.00 | 0.00 | 0.00 | 23 | 1022.6 |
| 20260503194609 | 63 | 105 | 1.0 | 2.0 | 0.00 | 0.00 | 0.00 | 23 | 1023.0 |
| 20260503194103 | 62 | 251 | 1.0 | 1.0 | 0.00 | 0.00 | 0.00 | 25 | 1023.1 |
| 20260503193600 | 61 | 211 | 2.0 | 2.0 | 0.00 | 0.00 | 0.00 | 25 | 1023.3 |
| 20260503193055 | 62 | 224 | 6.0 | 7.0 | 0.00 | 0.00 | 0.00 | 26 | 1023.2 |
| 20260503192552 | 62 | 241 | 3.0 | 3.0 | 0.00 | 0.00 | 0.00 | 24 | 1023.3 |
| 20260503192048 | 64 | 221 | 4.0 | 5.0 | 0.00 | 0.00 | 0.00 | 25 | 1023.2 |
| 20260503191545 | 63 | 300 | 3.0 | 5.0 | 0.00 | 0.00 | 0.00 | 25 | 1023.3 |
| 20260503191042 | 63 | 313 | 1.0 | 2.0 | 0.00 | 0.00 | 0.00 | 24 | 1023.3 |
| 20260503190539 | 64 | 284 | 8.0 | 9.0 | 0.00 | 0.00 | 0.00 | 24 | 1023.3 |
| 20260503190037 | 63 | 260 | 5.0 | 6.0 | 0.00 | 0.00 | 0.00 | 25 | 1023.5 |
| 20260503185533 | 62 | 275 | 4.0 | 5.0 | 0.00 | 0.00 | 0.00 | 25 | 1024.0 |
| 20260503185033 | 61 | 68 | 2.0 | 2.0 | 0.00 | 0.00 | 0.00 | 25 | 1023.5 |
| 20260503184529 | 62 | 133 | 4.0 | 5.0 | 0.00 | 0.00 | 0.00 | 24 | 1023.8 |
| 20260503184026 | 62 | 238 | 4.0 | 5.0 | 0.00 | 0.00 | 0.00 | 28 | 1024.1 |
| 20260503183522 | 60 | 224 | 2.0 | 3.0 | 0.00 | 0.00 | 0.00 | 26 | 1024.1 |
| 20260503183019 | 60 | 222 | 6.0 | 8.0 | 0.00 | 0.00 | 0.00 | 27 | 1024.4 |
| 20260503182518 | 62 | 285 | 3.0 | 3.0 | 0.00 | 0.00 | 0.00 | 25 | 1024.2 |
| 20260503182015 | 62 | 107 | 4.0 | 5.0 | 0.00 | 0.00 | 0.00 | 25 | 1024.5 |
| 20260503181512 | 62 | 222 | 2.0 | 2.0 | 0.00 | 0.00 | 0.00 | 27 | 1024.5 |
| 20260503181008 | 61 | 213 | 3.0 | 3.0 | 0.00 | 0.00 | 0.00 | 27 | 1024.6 |
| 20260503180506 | 60 | 338 | 5.0 | 7.0 | 0.00 | 0.00 | 0.00 | 26 | 1024.4 |
| 20260503180003 | 60 | 353 | 4.0 | 5.0 | 0.00 | 0.00 | 0.00 | 26 | 1024.6 |
| 20260503175501 | 59 | 45 | 3.0 | 5.0 | 0.00 | 0.00 | 0.00 | 27 | 1024.7 |
| 20260503174956 | 59 | 225 | 1.0 | 2.0 | 0.00 | 0.00 | 0.00 | 28 | 1024.9 |
| 20260503174455 | 58 | 271 | 4.0 | 5.0 | 0.00 | 0.00 | 0.00 | 28 | 1024.9 |
| 20260503173950 | 58 | 6 | 5.0 | 7.0 | 0.00 | 0.00 | 0.00 | 27 | 1025.0 |
| 20260503173445 | 59 | 222 | 3.0 | 3.0 | 0.00 | 0.00 | 0.00 | 30 | 1025.1 |
| 20260503172943 | 58 | 216 | 1.0 | 1.0 | 0.00 | 0.00 | 0.00 | 29 | 1025.1 |
| 20260503172440 | 58 | 158 | 3.0 | 5.0 | 0.00 | 0.00 | 0.00 | 28 | 1025.4 |
| 20260503171937 | 58 | 222 | 1.0 | 2.0 | 0.00 | 0.00 | 0.00 | 31 | 1025.4 |
| 20260503171433 | 58 | 241 | 3.0 | 5.0 | 0.00 | 0.00 | 0.00 | 30 | 1025.4 |
| 20260503170931 | 58 | 234 | 5.0 | 7.0 | 0.00 | 0.00 | 0.00 | 29 | 1025.5 |
| 20260503170427 | 58 | 219 | 0.0 | 0.0 | 0.00 | 0.00 | 0.00 | 32 | 1025.5 |
| 20260503150814 | 51 | 262 | 4.0 | 6.0 | 0.00 | 0.00 | 0.00 | 39 | 1025.9 |
| 20260503150309 | 50 | 218 | 1.0 | 2.0 | 0.00 | 0.00 | 0.00 | 49 | 1026.0 |
| 20260503140234 | 42 | 225 | 0.0 | 0.0 | 0.00 | 0.00 | 0.00 | 61 | 1026.4 |
| 20260503131203 | 39 | 226 | 1.0 | 1.0 | 0.00 | 0.00 | 0.00 | 60 | 1026.1 |
| 20260503130701 | 37 | 195 | 1.0 | 1.0 | 0.00 | 0.00 | 0.00 | 58 | 1026.1 |
| 20260503130158 | 37 | 211 | 0.0 | 0.0 | 0.00 | 0.00 | 0.00 | 59 | 1026.0 |
| 20260503120118 | 35 | 222 | 0.0 | 0.0 | 0.00 | 0.00 | 0.00 | 62 | 1025.6 |
| 20260503110545 | 36 | 168 | 2.0 | 2.0 | 0.00 | 0.00 | 0.00 | 57 | 1025.4 |
| 20260503090432 | 36 | 217 | 0.0 | 0.0 | 0.00 | 0.00 | 0.00 | 61 | 1026.2 |
| 20260503081358 | 36 | 210 | 0.0 | 0.0 | 0.00 | 0.00 | 0.00 | 62 | 1026.4 |
| 20260503080855 | 35 | 200 | 0.0 | 0.0 | 0.00 | 0.00 | 0.00 | 62 | 1026.5 |
| 20260503080352 | 35 | 203 | 0.0 | 0.0 | 0.00 | 0.00 | 0.00 | 63 | 1026.5 |
| 20260503072829 | 35 | 231 | 0.0 | 0.0 | 0.00 | 0.00 | 0.00 | 60 | 1026.8 |
| 20260503072326 | 35 | 220 | 0.0 | 0.0 | 0.00 | 0.00 | 0.00 | 60 | 1027.1 |
| 20260503071822 | 35 | 176 | 1.0 | 1.0 | 0.00 | 0.00 | 0.00 | 59 | 1026.8 |
| 20260503071320 | 34 | 191 | 1.0 | 1.0 | 0.00 | 0.00 | 0.00 | 58 | 1026.6 |
| 20260503070815 | 34 | 190 | 1.0 | 1.0 | 0.00 | 0.00 | 0.00 | 58 | 1026.6 |
| 20260503070308 | 34 | 195 | 1.0 | 1.0 | 0.00 | 0.00 | 0.00 | 59 | 1026.9 |
| 20260503060232 | 35 | 218 | 0.0 | 0.0 | 0.00 | 0.00 | 0.00 | 52 | 1026.8 |
| 20260503054719 | 35 | 201 | 0.0 | 1.0 | 0.00 | 0.00 | 0.00 | 52 | 1026.6 |
| 20260503054216 | 36 | 213 | 0.0 | 0.0 | 0.00 | 0.00 | 0.00 | 51 | 1026.9 |
| 20260503053714 | 36 | 209 | 0.0 | 0.0 | 0.00 | 0.00 | 0.00 | 49 | 1027.1 |
| 20260503053213 | 36 | 208 | 0.0 | 0.0 | 0.00 | 0.00 | 0.00 | 46 | 1026.8 |
| 20260503052709 | 37 | 130 | 3.0 | 3.0 | 0.00 | 0.00 | 0.00 | 48 | 1026.6 |
| 20260503052206 | 36 | 183 | 1.0 | 1.0 | 0.00 | 0.00 | 0.00 | 50 | 1027.0 |
| 20260503051701 | 37 | 168 | 1.0 | 1.0 | 0.00 | 0.00 | 0.00 | 49 | 1027.0 |
| 20260503051159 | 38 | 226 | 1.0 | 1.0 | 0.00 | 0.00 | 0.00 | 47 | 1026.9 |
| 20260503050655 | 37 | 179 | 2.0 | 2.0 | 0.00 | 0.00 | 0.00 | 47 | 1026.9 |
| 20260503050152 | 38 | 219 | 1.0 | 2.0 | 0.00 | 0.00 | 0.00 | 46 | 1027.0 |
| 20260503045649 | 37 | 204 | 0.0 | 0.0 | 0.00 | 0.00 | 0.00 | 48 | 1027.1 |
| 20260503045146 | 37 | 220 | 0.0 | 0.0 | 0.00 | 0.00 | 0.00 | 47 | 1026.9 |
| 20260503044643 | 38 | 228 | 0.0 | 0.0 | 0.00 | 0.00 | 0.00 | 49 | 1026.9 |
| 20260503044141 | 38 | 175 | 2.0 | 2.0 | 0.00 | 0.00 | 0.00 | 47 | 1026.8 |
| 20260503043637 | 37 | 198 | 0.0 | 1.0 | 0.00 | 0.00 | 0.00 | 49 | 1026.8 |
| 20260503043134 | 38 | 222 | 0.0 | 0.0 | 0.00 | 0.00 | 0.00 | 49 | 1026.6 |
| 20260503042630 | 38 | 195 | 1.0 | 1.0 | 0.00 | 0.00 | 0.00 | 46 | 1026.9 |
| 20260503042126 | 38 | 228 | 0.0 | 0.0 | 0.00 | 0.00 | 0.00 | 46 | 1026.6 |
| 20260503041618 | 38 | 197 | 0.0 | 1.0 | 0.00 | 0.00 | 0.00 | 48 | 1026.5 |
| 20260503041115 | 38 | 199 | 0.0 | 0.0 | 0.00 | 0.00 | 0.00 | 49 | 1026.9 |
| 20260503040612 | 39 | 201 | 0.0 | 0.0 | 0.00 | 0.00 | 0.00 | 47 | 1026.5 |
| 20260503040109 | 39 | 205 | 0.0 | 0.0 | 0.00 | 0.00 | 0.00 | 48 | 1026.6 |
| 20260503035606 | 39 | 201 | 1.0 | 1.0 | 0.00 | 0.00 | 0.00 | 47 | 1026.8 |
| 20260503035103 | 39 | 201 | 0.0 | 1.0 | 0.00 | 0.00 | 0.00 | 47 | 1026.6 |
| 20260503034600 | 39 | 196 | 1.0 | 1.0 | 0.00 | 0.00 | 0.00 | 47 | 1027.0 |
| 20260503034058 | 40 | 222 | 0.0 | 0.0 | 0.00 | 0.00 | 0.00 | 45 | 1026.5 |
| 20260503033555 | 40 | 163 | 2.0 | 2.0 | 0.00 | 0.00 | 0.00 | 45 | 1026.2 |
| 20260503033053 | 41 | 222 | 0.0 | 0.0 | 0.00 | 0.00 | 0.00 | 45 | 1026.6 |
| 20260503032551 | 41 | 211 | 0.0 | 0.0 | 0.00 | 0.00 | 0.00 | 45 | 1026.8 |
| 20260503032049 | 41 | 202 | 1.0 | 1.0 | 0.00 | 0.00 | 0.00 | 44 | 1026.4 |
| 20260503031546 | 42 | 192 | 1.0 | 1.0 | 0.00 | 0.00 | 0.00 | 42 | 1026.5 |
| 20260503031044 | 42 | 210 | 0.0 | 0.0 | 0.00 | 0.00 | 0.00 | 41 | 1026.8 |
| 20260503030539 | 42 | 179 | 1.0 | 2.0 | 0.00 | 0.00 | 0.00 | 43 | 1026.8 |
| 20260503030037 | 42 | 207 | 0.0 | 0.0 | 0.00 | 0.00 | 0.00 | 43 | 1026.6 |
| 20260503025533 | 43 | 206 | 0.0 | 0.0 | 0.00 | 0.00 | 0.00 | 41 | 1026.5 |
| 20260503025031 | 43 | 194 | 0.0 | 1.0 | 0.00 | 0.00 | 0.00 | 44 | 1026.6 |
| 20260503024527 | 44 | 192 | 1.0 | 1.0 | 0.00 | 0.00 | 0.00 | 41 | 1026.6 |
| 20260503024024 | 45 | 210 | 0.0 | 0.0 | 0.00 | 0.00 | 0.00 | 40 | 1026.4 |
| 20260503023521 | 45 | 215 | 0.0 | 0.0 | 0.00 | 0.00 | 0.00 | 38 | 1026.5 |
| 20260503023018 | 46 | 209 | 0.0 | 0.0 | 0.00 | 0.00 | 0.00 | 38 | 1026.5 |
| 20260503022514 | 46 | 214 | 0.0 | 0.0 | 0.00 | 0.00 | 0.00 | 36 | 1026.4 |
| 20260503022009 | 46 | 214 | 0.0 | 0.0 | 0.00 | 0.00 | 0.00 | 36 | 1026.4 |